Location: Seattle
(47.6064°N, 122.3308°W)
Time: 13:55:55
(UTC-07:00)

SEEDS - Pass Details

Date: 06 April 2023
Orbit: 568 x 587 km, 97.7° (Epoch: 30 May)

Event Time Altitude Azimuth Distance (km) Brightness Sun altitude
Rises 05:57:37 0° 5° (N) 2,838 ? -7.5°
Reaches altitude 10° 05:59:56 10° 356° (N) 1,931 ? -7.1°
Maximum altitude 06:03:42 34° 292° (WNW) 989 ? -6.5°
Drops below altitude 10° 06:07:27 10° 227° (SW) 1,913 ? -5.9°
Enters shadow 06:09:21 - 219° (SW) 2,648 ? -5.6°
